S-Net D
1 43186U 18014G 24235.67169367 .00011039 00000-0 76720-3 0 9996
2 43186 97.5824 136.3611 0011730 133.8968 226.3229 15.05637554358508
S-Net B
1 43187U 18014H 24235.67430796 .00011124 00000-0 77310-3 0 9995
2 43187 97.5828 136.3181 0012564 130.4168 229.8157 15.05626898358503
S-Net A
1 43188U 18014J 24235.67278600 .00010961 00000-0 76164-3 0 9994
2 43188 97.5836 136.4347 0012488 130.8418 229.3894 15.05638137358507
S-Net C
1 43189U 18014K 24235.67638664 .00011245 00000-0 78108-3 0 9991
2 43189 97.5849 136.3994 0014271 125.2076 235.0489 15.05625929357057
Ten-Koh
1 43677U 18084G 24235.41066611 .00006692 00000-0 58931-3 0 9991
2 43677 98.0719 30.9446 0013929 154.2520 205.9397 14.96753637316626
PO-101
1 43678U 18084H 24235.84903000 .00004364 00000-0 39688-3 0 9993
2 43678 98.0794 35.8346 0009334 164.4061 195.7448 14.95735441316884
QO-100
1 43700U 18090A 24235.55999446 .00000136 00000-0 00000-0 0 9999
2 43700 0.0156 149.6686 0002758 43.9038 5.1951 1.00273360 21025
MinXSS-2
1 43758U 18099A 24235.43666382 .00022380 00000-0 13297-2 0 9997
2 43758 97.5486 296.8455 0017198 92.8520 267.4679 15.11175002312784
AO-95
1 43770U 18099N 24235.12881680 .00016108 00000-0 10644-2 0 9991
2 43770 97.5385 291.6100 0014518 135.4998 224.7399 15.07392416312490
RANGE-B
1 43772U 18099Q 24235.41653793 .00024962 00000-0 14379-2 0 9993
2 43772 97.5182 295.6314 0005497 52.5787 307.5944 15.12383004312720
RANGE-A
1 43773U 18099R 24235.55571771 .00010193 00000-0 75168-3 0 9999
2 43773 97.4962 286.6763 0014066 108.0957 252.1802 15.03402613312403
MOVE-II
1 43780U 18099Y 24235.42747234 .00041452 00000-0 19261-2 0 9995
2 43780 97.5151 297.9424 0007081 112.8760 247.3223 15.19842042312971
SNUSat 2
1 43782U 18099AA 24235.11724115 .00014920 00000-0 10129-2 0 9990
2 43782 97.5067 290.3862 0015346 80.2896 280.0064 15.06395940312493
SnugLite
1 43784U 18099AC 24235.14759983 .00014880 00000-0 97773-3 0 9992
2 43784 97.4899 289.7233 0006006 91.2531 268.9385 15.07687230312579
ITASat 1
1 43786U 18099AE 24235.42232902 .00012811 00000-0 88955-3 0 9996
2 43786 97.5049 290.8473 0018416 124.8477 235.4485 15.05549571312537
EAGLET 1
1 43790U 18099AJ 24235.60446742 .00008728 00000-0 63733-3 0 9999
2 43790 97.5230 291.5133 0015365 103.6542 256.6396 15.03806567312257
ESEO
1 43792U 18099AL 24235.71877483 .00004314 00000-0 34932-3 0 9999
2 43792 97.5145 288.0609 0011000 92.8562 267.3921 15.00188533312173
CSIM
1 43793U 18099AM 24235.42798023 .00038036 00000-0 17855-2 0 9992
2 43793 97.5243 299.7105 0012035 87.2370 273.0241 15.19468099312826
JO-97
1 43803U 18099AX 24235.11687421 .00019063 00000-0 11995-2 0 9997
2 43803 97.5137 292.3722 0010518 80.8147 279.4271 15.09197406312631
Suomi 100
1 43804U 18099AY 24235.60311437 .00015617 00000-0 10071-2 0 9998
2 43804 97.5209 292.6255 0016533 77.5143 282.7934 15.08272328312682
ISAT
1 43879U 18111D 24235.47958990 .00023753 00000-0 13508-2 0 9999
2 43879 97.6109 140.9328 0014954 126.2521 234.0094 15.12775358309439
UWE-4
1 43880U 18111E 24235.51202860 .00019132 00000-0 11253-2 0 9995
2 43880 97.6029 140.8093 0018012 135.8258 224.4414 15.11563916309446
Sparrow
1 43881U 18111F 24235.69169203 .00024998 00000-0 13998-2 0 9992
2 43881 97.6204 143.1778 0010943 158.2970 201.8726 15.13363921307532
Prox-1
1 44339U 19036A 24235.46802791 .00018456 00000-0 30539-2 0 9991
2 44339 23.9986 158.4563 0008073 16.9584 343.1180 14.68767499274997
SONATE
1 44400U 19038Q 24235.72284870 .00038875 00000-0 10320-2 0 9996
2 44400 97.7145 232.9702 0013471 217.3713 142.6595 15.38096523284291
Taurus 1
1 44530U 19059C 24235.83068103 .00015493 00000-0 34605-2 0 9997
2 44530 98.5816 357.8391 0011421 208.4633 151.5942 14.56813741261462
Duchifat 3
1 44854U 19089C 24235.70306764 .00031806 00000-0 14647-2 0 9993
2 44854 36.9571 4.3636 0006009 306.3994 53.6200 15.19448101258318
TO-108
1 44881U 19093C 24235.86608883 .00002880 00000-0 35108-3 0 9998
2 44881 97.8245 311.3631 0015666 103.9355 256.3603 14.84061549252938
FloripaSat 1
1 44885U 19093G 24235.80022376 .00011087 00000-0 11111-2 0 9999
2 44885 97.8384 317.9068 0013280 95.8772 264.3961 14.91466732253291
RS-44
1 44909U 19096E 24235.79974056 .00000012 00000-0 91600-5 0 9998
2 44909 82.5182 60.5018 0216498 255.4140 102.2865 12.79733133217536
BY70-2
1 45857U 20042B 24231.99670933 .21607952 28471-5 37049-2 0 9999
2 45857 97.8802 331.4374 0021194 281.9515 77.9402 16.32302805224274
UPMSat 2
1 46276U 20061E 24235.44619025 .00031324 00000-0 86169-3 0 9997
2 46276 97.2913 301.0309 0000942 177.3324 182.7926 15.37125999220343
AmicalSat
1 46287U 20061R 24235.70835672 .00072055 00000-0 15755-2 0 9994
2 46287 97.3416 303.2423 0000519 316.1029 44.0178 15.43903622219802
SALSAT
1 46495U 20068K 24235.84049053 .00014177 00000-0 77075-3 0 9992
2 46495 97.8221 196.8832 0015803 87.5880 272.7160 15.14494088214397
UVSQ-SAT
1 47438U 21006AB 24235.73025507 .00148454 00000-0 18059-2 0 9991
2 47438 97.3162 297.5724 0003644 297.1493 62.9392 15.60041255199069
SOMP 2b
1 47445U 21006AJ 24235.38723326 .00116355 00000-0 17471-2 0 9996
2 47445 97.3122 295.0820 0003742 333.9059 26.2005 15.54479092198902
IDEASSat
1 47458U 21006AX 24235.82952585 .00090655 00000-0 15896-2 0 9993
2 47458 97.3241 295.8231 0003907 336.5143 23.5929 15.50236559198885
CubeSX-Sirius-HSE
1 47951U 21022V 24235.86910385 .00037796 00000-0 13137-2 0 9998
2 47951 97.4498 134.1938 0010245 256.8456 103.1641 15.29587125188756
CubeSX-HSE
1 47952U 21022W 24235.81722382 .00041464 00000-0 14327-2 0 9991
2 47952 97.4499 134.2468 0010197 255.6079 104.4030 15.29758892188758
KSU-Cubesat
1 47954U 21022Y 24235.72516241 .00051524 00000-0 15739-2 0 9994
2 47954 97.4508 135.8214 0008740 245.5842 114.4488 15.33683389188564
GRBAlpha
1 47959U 21022AD 24235.84295301 .00039318 00000-0 13557-2 0 9996
2 47959 97.4500 134.4333 0009995 255.5000 104.5132 15.29841413187584
Orbicraft-Zorkiy
1 47960U 21022AE 24235.80554954 .00044816 00000-0 14256-2 0 9992
2 47960 97.4543 135.9391 0008892 249.3270 110.7019 15.32424002188341
STECCO
1 47962U 21022AG 24228.02305010 .17567430 26699-5 34381-3 0 9996
2 47962 97.4265 141.9998 0011844 218.2455 141.8009 16.46434050187393
TUBIN
1 48900U 21059X 24235.83246292 .00031053 00000-0 96668-3 0 9990
2 48900 97.6544 22.5701 0006417 208.5933 151.4958 15.33217150175120
